Flag for Canada Weather past 2 weeks in Iqaluit, Nunavut Territory, Canada

Now
3 °F

Clear.


Feels Like: -9 °F
Forecast: -8 / 12 °F
Wind: 7 mph from North

Location: Iqaluit


UV Index: 0 (Low)

Visibility: 20 mi


Pressure: 30.32 "Hg

Humidity: 72%

Dew point: -4 °F

Location of IqaluitLocation

Historic Weather in Iqaluit

°F

Iqaluit temperature yesterday

Maximum temperature yesterday: 16 °F (at 1:00 PM)
Minimum temperature yesterday: 9 °F (at 9:00 PM)
Average temperature yesterday: 13 °F

Past Weeks' High & Low Weather Summary

 TemperatureHumidityPressure
High16 °F (Apr 9, 1:00 PM)85% (Apr 8, 8:00 PM)30.32 "Hg (Apr 8, 8:00 PM)
Low-15 °F (Apr 14, 3:00 AM)47% (Apr 17, 4:00 PM)29.04 "Hg (Apr 10, 11:00 AM)
Average4 °F71%29.77 "Hg
* Reported Apr 8 8:00 PM — Apr 23 8:00 PM, Iqaluit, Weather by CustomWeather, © 2014

Note: Actual official high and low records may vary slightly from our data, if they occured in-between our weather recording intervals... More about our weather records

Advertising

Historic Weather Conditions — Data for Previous 24 hours

 ConditionsComfort  
Time TempWeatherWind HumidityBarometerVisibility
8:00 PM
Apr 23
7 °FClear.5 mph72%30.32 "Hg30 mi
7:00 PM12 °FSunny.No wind73%30.31 "Hg30 mi
6:00 PM12 °FSunny.2 mph73%30.30 "Hg30 mi
5:00 PM14 °FSunny.3 mph73%30.29 "Hg30 mi
4:00 PM16 °FSunny.No wind62%30.28 "Hg30 mi
3:00 PM14 °FSnow flurries. Sunny.No wind73%30.28 "Hg30 mi
2:00 PM14 °FSnow flurries. Passing clouds.2 mph67%30.27 "Hg30 mi
1:00 PM14 °FSnow flurries. Passing clouds.3 mph67%30.27 "Hg30 mi
12:00 PM12 °FSnow flurries. Scattered clouds.5 mph73%30.26 "Hg20 mi
11:00 AM12 °FSnow flurries. Overcast.3 mph67%30.25 "Hg20 mi
10:00 AM10 °FSnow flurries. Overcast.3 mph72%30.25 "Hg20 mi
9:00 AM9 °FSnow flurries. Overcast.2 mph72%30.24 "Hg20 mi
8:00 AM7 °FSnow flurries. Overcast.No wind78%30.23 "Hg20 mi
7:00 AM7 °FSnow flurries. Overcast.No wind72%30.21 "Hg25 mi
6:00 AM7 °FSnow flurries. Partly sunny.No wind78%30.19 "Hg30 mi
5:00 AM5 °FPartly sunny.No wind78%30.18 "Hg30 mi
4:00 AM5 °FPartly sunny.No wind78%30.16 "Hg15 mi
3:00 AM7 °FPassing clouds.2 mph72%30.15 "Hg15 mi
2:00 AM7 °FPassing clouds.2 mph78%30.15 "Hg15 mi
1:55 AM7 °FPassing clouds.2 mph78%30.15 "Hg15 mi
1:00 AM7 °FLight snow. Passing clouds.No wind72%30.14 "Hg15 mi
12:00 AM9 °FLight snow. Overcast.5 mph72%30.12 "Hg15 mi
11:00 PM
Apr 22
9 °FLight snow. Partly cloudy.2 mph72%30.11 "Hg10 mi
10:00 PM9 °FLight snow. Partly cloudy.5 mph78%30.11 "Hg10 mi
9:00 PM9 °FLight snow. Passing clouds.3 mph78%30.10 "Hg10 mi
Weather by CustomWeather, © 2014

See weather overview